sat.trackr.live / text

‹ back to catalog

KZ-11 R/B

NORAD 69628 · 2026-138H

ROCKET_BODY UNKNOWN UNKNOWN

§ Identity

Operator
Country
PRC
Launch date
2026-06-17
Launch site
JSC
Launch vehicle
Mass (kg)
RCS (m²)

External: N2YO · Heavens-Above · Gunter

§ Orbital elements

Epoch: 2026-07-12T21:48:00.762624Z

Period
93.32 min
Inclination
55.1520°
Eccentricity
0.0377051
Mean motion
15.43010363 rev/d
Perigee alt
180.3 km
Apogee alt
694.2 km
Semi-major
6,815.4 km
B*
7.5497e-4
RAAN
167.7492°
Arg perigee
143.6026°
Mean anomaly
219.1292°
Rev number
389

§ Raw data

KZ-11 R/B1 69628U 26138H   26193.90834216  .00780150  97501-5  75497-3 0  99982 69628  55.1520 167.7492 0377051 143.6026 219.1292 15.43010363  3894

JSON: /api/v1/satellites/69628 · /tle

For live sub-satellite position, see the globe view (requires WebGL).

§ Visibility from observer

Set your observer location to see the next 7 days of passes ≥ 10°. The values pass through the URL so the page stays shareable.

No JS? Fill the form by hand. The geolocation button needs JavaScript.